Starlink 31226

operational
NORAD ID: 58858 Int'l Des: 2024-019 Owner: SPXS Country: US Constellation: starlink
LEOCIRCULAR

About Starlink 31226

Description loading...

Live Position

Loading 3D Globe...

Upcoming Passes

Altitude History

Altitude vs Time

uPlot chart will show altitude changes over time

Two-Line Element Set

1 58858U 24019F 25353.28275837 .00001694 00000-0 71055-4 0 9992
2 58858 43.0032 343.1533 0001022 269.3695 90.7040 15.27582856106786
Epoch: Dec 19, 2025 • Age: 26 hours

Current Status

Altitude 486.9 km
Velocity 7.63 km/s
Sub-Earth Point 43.11°N, 143.07°W
Launch Date Jan 29, 2024
Age 1.8 years
Type internet

Technical Details

Classification Payload
Mass 730.00 kg
Dry Mass 700.00 kg
Total Mass 730.00 kg
Length 0.30 m
Diameter 4.10 m
Span 29.00 m
Shape Box + pan
Manufacturer SPXS
Bus Type Starlink V2M
Phase Status In Orbit
Owner/State SPXS/US

Large Constellations

Loading constellations...